Location: Newark
(47.5833°N, 8.1500°E)
Time: 17:41:09
(UTC+00:00)

Transit 2A - Pass Details

Date: 29 October 2020
Orbit: 595 x 964 km, 66.7° (Epoch: 01 December)

Event Time Altitude Azimuth Distance (km) Brightness Sun altitude
Rises 09:44:56 0° 320° (NW) 3,438 8.8 25.8°
Reaches altitude 10° 09:47:43 10° 311° (NW) 2,437 8.2 26.0°
Maximum altitude 09:52:39 33° 249° (WSW) 1,270 7.4 26.3°
Drops below altitude 10° 09:57:08 10° 186° (S) 2,199 9.6 26.6°
Sets 09:59:32 0° 176° (S) 3,056 10.3 26.7°
